Regional Weather Roundup
Issued by NWS

Home | Current Version | Previous Version | Graphics & Text | Print | Product List | Glossary On
Versions: 1 2 3 4 5 6 7 8 9 10 11 12 13 14 15 16 17 18 19 20 21 22 23 24 25 26 27
000
ASUS45 KBOU 210007
RWRCO

WEATHER ROUNDUP FOR COLORADO
NATIONAL WEATHER SERVICE DENVER/BOULDER CO
600 PM MDT WED SEP 20 2017

NOTE: "FAIR" INDICATES FEW OR NO CLOUDS BELOW 12000 FEET WITH NO
SIGNIFICANT WEATHER AND/OR OBSTRUCTIONS TO VISIBILITY.

COZ001>005-013-030-031-210100-
...NORTHWEST COLORADO...

CITY           SKY/WX    TMP DP  RH WIND       PRES   REMARKS
CRAIG          FAIR      74  28  18 SW21G31   29.85S
HAYDEN         FAIR      72  32  23 W18G24    29.88S
MEEKER         FAIR      73  33  23 S16G24    29.88R
RABBIT EARS PA FAIR      54  32  43 SW7       30.15S
STEAMBOAT SPGS FAIR      70  32  24 SW13      29.89F
WALDEN         FAIR      63  28  27 W13G24    29.99S
$$

COZ006>008-011-210100-
...WEST CENTRAL VALLEYS...

CITY           SKY/WX    TMP DP  RH WIND       PRES   REMARKS
GRAND JUNCTION FAIR      81  34  18 W3        29.78F
MONTROSE       FAIR      78  27  15 SW18G25   29.90S
EAGLE          NOT AVBL
RIFLE          FAIR      78  33  19 W14       29.83S
DELTA          FAIR      83  25  11 SW17G23   29.86S
NUCLA          FAIR      79  23  12 S15G26    29.95F
$$

COZ017>023-064>068-210100-
...SOUTHWEST COLORADO...

CITY           SKY/WX    TMP DP  RH WIND       PRES   REMARKS
DURANGO        FAIR      75  27  17 SW8       30.02S
CORTEZ         FAIR      79  27  14 S15       29.95F
PAGOSA SPRINGS FAIR      71  19  13 SW8G18    30.11S
TELLURIDE      FAIR      64  22  20 S12G26    30.17R
WOLF CREEK PAS FAIR      46  23  39 SW23G39   30.37S
$$

COZ009-010-012-014-032>034-037-058>063-210100-
...CENTRAL COLORADO...

CITY           SKY/WX    TMP DP  RH WIND       PRES   REMARKS
ASPEN          FAIR      71  25  17 S14       29.99R
BUENA VISTA    FAIR      73  20  13 S12       29.99S
COPPER MTN     FAIR      55  14  19 SW8       30.28R
BERTHOUD PASS  FAIR      48  39  71 NW12G21   30.31R
COTTONWOOD PAS FAIR      70  18  13 S7G18     30.14S
GUNNISON       FAIR      71  28  20 W6        30.00R
KREMMLING      FAIR      77  25  14 SW9G28    29.96S
LEADVILLE      FAIR      61  14  16 SW9G21    30.12R
MONARCH PASS   FAIR      54  21  28 W21G31    30.41S
SALIDA         FAIR      77  23  13 W8        30.04R
SUNLIGHT       FAIR      52  27  37 SW12G22   30.22S
WILKERSON PASS FAIR      52  25  35 S8        30.26R
$$

COZ069>075-210100-
...SAN LUIS VALLEY/SANGRE DE CRISTO MOUNTAINS...

CITY           SKY/WX    TMP DP  RH WIND       PRES   REMARKS
ALAMOSA        FAIR      72  27  18 S18G26    30.05R
DEL NORTE      FAIR      69  28  21 SW12G23   30.07S
LA VETA PASS   FAIR      59  23  25 MISG      30.31F
SAGUACHE       FAIR      72  28  20 SW21G28   30.01R
$$

COZ035-036-038>040-210100-
...NORTHERN COLORADO FRONT RANGE...

CITY           SKY/WX    TMP DP  RH WIND       PRES   REMARKS
DENVER INTL AP FAIR      76  28  17 S15       29.82R
DMNS CITY PARK   N/A     74  33  22 N8G16     29.82S
AURORA         MOSUNNY   74  29  19 S22G29    29.84R
FRONT RANGE AP MOSUNNY   82  28  14 SE17      29.84R
ERIE MUNI ARPT FAIR      73  33  22 W8        29.86S
BOULDER MUN AP FAIR      73  32  21 CALM      29.82F
CENTENNIAL     FAIR      73  29  19 S13       29.85R
BROOMFIELD     MOSUNNY   75  32  20 NW7       29.85S
FORT COLLINS   FAIR      76  36  23 CALM      29.82S
LONGMONT       FAIR      76  33  20 CALM      29.83S
$$

COZ041-046-047-076>085-087-088-210100-
...PIKES PEAK/PALMER DIVIDE AND SOUTHERN FOOTHILLS...

CITY           SKY/WX    TMP DP  RH WIND       PRES   REMARKS
COLO. SPRINGS  FAIR      69  31  24 S16       29.96S
A. F. ACADEMY  FAIR      67  28  23 SE21G26   29.94F
SCHRIEVER AFB  FAIR      67  28  23 S17       29.96S
CHEYENNE MTN   FAIR      62  28  27 S12       29.95R
ELLICOTT         N/A    N/A N/A N/A S18G25    29.95S
FALCON         FAIR      65  27  23 SE17G29   30.01R
FORT CARSON    FAIR      71  30  22 SE13      29.94R
LIMON          FAIR      69  28  21 SE25G32   29.91S
MONUMENT HILL  FAIR      63  30  29 S23G40    29.96R
CANON CITY     SUNNY     75  34  22 NE14      29.89S
WALSENBURG     FAIR      82  25  12 SW17G29   29.89F
TRINIDAD       FAIR      77  34  21 S20G29    29.90S
$$

COZ042>045-048>051-090-091-210100-
...NORTHEAST COLORADO...

CITY           SKY/WX    TMP DP  RH WIND       PRES   REMARKS
GREELEY ARPT   FAIR      77  34  21 SE14      29.80S
AKRON          FAIR      73  27  18 SE25G35   29.87S
BURLINGTON     FAIR      74  32  21 SE16      29.90F
WRAY           FAIR      77  27  15 SE15      29.88S
YUMA           FAIR      72  32  23 SE14G21   29.87S
STERLING       FAIR      75  32  20 S17G23    29.83R
HOLYOKE        NOT AVBL
FORT MORGAN    FAIR      74  27  17 SE16G22   29.84S
$$

COZ086-089-092>099-210100-
...SOUTHEAST COLORADO...

CITY           SKY/WX    TMP DP  RH WIND       PRES   REMARKS
PUEBLO         FAIR      78  30  17 E21G28    29.83F
LA JUNTA       FAIR      77  36  22 SE23G30   29.85F
LAMAR          FAIR      77  34  21 S16       29.86F
SPRINGFIELD      N/A     72  39  30 SE13      29.93S
$$




USA.gov is the U.S. government's official web portal to all federal, state and local government web resources and services.